Terug naar catalogus

NOAA 16 DEB

ActiefSSO
NORAD 42363·DEBRIS·🇺🇸 United States

Gelanceerd Sep 21, 2000 vanaf Vandenberg Space Force Base

Loading…

Volgende Passages (komende 24 uur)

TLE

VersSource: Space-Track

Epoch: Sep 12, 2026, 05:44 UTC

1 42363U 00055RF  26255.23906092  .00002065  00000-0  10703-2 0  9995
2 42363  98.8005 255.9473 0062385 139.5151 221.0688 14.14933768540736

Volg NOAA 16 DEB in realtime met AllMySat

Download on the App Store